User: anonymous   Login
Location: Unspecified
(0.0000°N, 0.0000°E)
Time: 01:10:44
(UTC+00:00)
Language:

ONEWEB-0596 - Orbit

View from above orbital plane
View from above orbital plane
View from above satellite
View from above satellite

Ground track
Ground track

The orbit is defined by the following mean orbital elements,

1 54662U          26145.52154897 +.00000000 +00000-0 +27779-5 0 00002
2 54662  87.9253 248.4941 0001932 102.7294 257.4056 13.21824932    05
Epoch (UTC): 25 May 2026 12:31:01
Eccentricity: 0.0001932
inclination: 87.9253°
perigee height: 1176 km
apogee height: 1179 km
right ascension of ascending node: 248.4941°
argument of perigee: 102.7294°
revolutions per day: 13.21824932
mean anomaly at epoch: 257.4056°

The dashed part of the orbit path shows where the satellite is in the earth's shadow,  

DLR